Lapse_Rate
5.3 5.6 5.7 5.8 5.7 5.5 6.0 5.7 5.7 5.7 5.7 5.5 5.8 6.3 6.4 6.8 7.0 7.1 7.2 7.2 7.0 7.0 6.8 6.7 6.7 6.7 6.8 6.8 6.8 6.8 6.8 6.8 6.8 6.9 6.8 6.8 6.8 6.7 6.6 6.7 6.7 6.9 7.0 7.1 7.0 7.0 7.1 7.3 7.3 7.1 7.0 7.2 7.2 7.3
5.2 5.4 5.5 5.8 5.7 5.5 6.0 5.9 5.8 5.8 5.9 5.9 5.9 6.3 6.6 6.6 6.8 6.9 6.8 7.0 6.9 6.8 6.6 6.5 6.6 6.5 6.5 6.6 6.6 6.7 6.6 6.6 6.7 6.7 6.7 6.7 6.7 6.7 6.8 6.7 6.9 6.9 7.0 7.0 7.0 6.9 6.9 6.9 6.8 6.8 6.9 6.9 7.0 7.2
5.2 5.3 5.6 5.7 5.6 5.6 6.0 5.9 5.9 5.8 6.0 6.0 6.1 6.4 6.4 6.4 6.5 6.7 6.7 6.9 6.7 6.6 6.4 6.4 6.4 6.4 6.6 6.6 6.6 6.5 6.5 6.5 6.5 6.4 6.4 6.4 6.4 6.5 6.6 6.8 6.8 6.7 6.7 6.7 6.8 6.9 6.8 6.7 6.7 6.6 6.6 6.7 6.7 6.7
5.1 5.2 5.4 5.4 5.6 5.5 6.1 6.1 5.9 5.8 6.0 6.0 6.1 6.2 6.2 6.2 6.1 6.3 6.5 6.8 6.9 6.7 6.3 6.4 6.3 6.3 6.4 6.4 6.4 6.5 6.5 6.5 6.4 6.4 6.4 6.3 6.3 6.4 6.5 6.6 6.6 6.7 6.6 6.6 6.7 6.6 6.6 6.6 6.5 6.5 6.6 6.6 6.7 6.7
5.3 5.4 5.3 5.3 5.6 5.4 5.9 6.3 5.9 5.8 5.9 6.0 6.0 5.9 5.8 5.6 5.7 6.0 6.4 6.8 6.9 6.7 6.5 6.3 6.3 6.3 6.3 6.4 6.4 6.5 6.5 6.6 6.5 6.5 6.5 6.4 6.3 6.1 6.3 6.3 6.6 6.7 6.7 6.6 6.6 6.3 6.4 6.4 6.4 6.5 6.4 6.4 6.5 6.7
5.5 5.6 5.4 5.9 5.7 5.6 5.6 6.2 5.8 5.7 5.8 5.9 5.9 5.7 5.6 5.4 5.6 5.9 6.5 6.9 6.9 6.7 6.5 6.4 6.4 6.4 6.3 6.3 6.5 6.4 6.3 6.4 6.4 6.4 6.5 6.6 6.6 6.4 6.6 6.7 6.9 6.7 6.5 6.4 6.3 6.2 6.0 6.0 6.1 6.1 6.1 6.3 6.4 6.5
5.7 5.9 5.6 5.9 6.0 5.5 5.9 6.4 5.9 5.6 5.8 5.9 5.8 5.6 5.7 5.8 6.0 6.2 6.8 6.9 6.7 6.6 6.4 6.4 6.3 6.4 6.3 6.3 6.4 6.4 6.4 6.4 6.5 6.4 6.4 6.3 6.4 6.4 6.6 6.9 6.9 6.8 6.6 6.3 6.1 6.0 6.1 6.1 6.0 6.1 6.2 6.2 6.1 6.1
5.8 5.9 6.1 6.2 6.1 5.7 6.4 6.7 5.9 5.7 5.8 5.8 5.7 5.5 5.5 5.7 6.0 6.5 6.6 6.7 6.7 6.5 6.4 6.3 6.3 6.5 6.5 6.5 6.5 6.5 6.3 6.3 6.4 6.3 6.3 6.2 6.2 6.1 6.5 6.8 6.8 6.7 6.6 6.6 6.3 6.1 6.1 6.1 6.0 6.1 6.1 6.1 6.2 6.3
6.0 5.8 6.1 6.1 5.7 6.1 6.8 6.6 5.8 5.6 5.7 5.6 5.5 5.3 5.4 5.6 6.0 6.3 6.6 6.7 6.6 6.4 6.3 6.4 6.5 6.7 6.7 6.6 6.5 6.5 6.4 6.2 6.3 6.4 6.2 6.0 6.4 6.4 6.5 6.6 6.3 6.3 6.3 6.3 6.3 6.1 6.0 6.0 6.0 6.1 6.2 6.2 6.1 6.1
5.8 6.0 5.9 5.8 6.4 6.2 6.4 5.8 5.6 5.6 5.5 5.4 5.2 5.2 5.3 5.6 5.8 6.0 6.4 6.4 6.2 6.4 7.1 7.1 6.9 6.9 6.9 6.8 6.6 6.5 6.3 6.2 6.1 6.4 6.3 6.3 7.3 7.1 6.5 6.0 6.0 6.0 6.0 6.0 6.0 6.0 6.1 6.0 6.0 6.0 6.1 6.3 6.4 6.4
6.3 6.3 5.9 6.3 6.3 6.2 5.9 5.7 5.5 5.5 5.4 5.2 5.3 5.2 5.4 5.5 5.5 5.7 5.8 6.0 6.1 6.2 6.7 7.6 7.4 7.0 7.0 6.8 6.7 6.4 6.4 6.3 6.1 6.4 6.2 6.0 7.1 6.7 6.5 6.2 6.2 6.1 6.1 6.1 6.0 5.9 5.8 5.7 5.8 6.0 6.1 6.2 6.3 6.3
6.0 6.0 6.2 6.7 6.4 6.1 5.8 5.6 5.5 5.4 5.4 5.4 5.2 5.2 5.3 5.3 5.4 5.6 5.8 6.1 6.3 6.3 6.7 7.6 7.5 7.0 6.9 6.7 6.6 6.6 6.4 6.2 6.2 6.0 5.9 6.1 6.9 6.4 6.3 6.1 6.1 6.1 6.3 6.3 6.0 5.5 5.6 5.7 5.9 6.0 6.1 6.2 6.2 6.3
5.9 5.9 6.4 6.4 5.8 5.9 5.7 5.8 5.6 5.5 5.6 5.5 5.0 4.8 5.1 5.1 5.1 5.5 6.0 6.3 6.5 6.4 6.9 7.5 7.5 6.9 6.6 6.6 6.6 6.7 6.5 6.4 6.3 6.0 5.9 7.0 6.8 6.5 6.4 6.3 6.2 6.2 6.2 6.1 5.8 5.7 5.7 5.8 6.0 6.1 6.1 6.3 6.4 6.3
6.2 6.3 6.1 5.9 5.9 5.7 5.8 5.8 5.8 5.7 5.7 5.4 5.4 5.3 5.4 5.6 5.7 6.0 6.3 6.5 6.6 6.8 6.8 7.0 7.0 6.6 6.5 6.4 6.5 6.6 6.6 6.4 6.1 5.7 6.3 6.8 6.7 6.7 6.5 6.3 6.2 6.1 5.9 5.8 5.6 5.7 5.9 6.0 6.1 6.0 6.0 6.1 6.1 6.3
5.8 6.0 5.7 5.7 5.7 5.6 5.5 5.3 5.4 5.7 5.3 5.0 5.3 5.5 5.7 5.8 5.8 6.0 6.3 6.4 6.5 6.7 7.1 7.1 6.9 6.8 6.7 6.5 6.7 6.9 6.7 5.9 5.8 6.6 6.6 6.7 6.7 6.5 6.3 6.0 6.0 5.9 5.8 5.8 5.9 6.0 6.0 6.1 6.2 6.3 6.4 6.4 6.4 6.4
6.0 5.8 5.8 5.9 5.7 5.8 5.8 5.5 5.3 5.3 5.4 5.4 5.7 5.9 6.0 6.0 6.0 6.2 6.6 6.8 6.8 7.2 7.0 6.9 6.9 6.8 6.7 6.8 6.8 6.7 6.4 6.7 6.8 6.6 6.6 6.7 6.5 6.4 6.1 6.0 6.0 5.9 5.9 6.0 6.1 6.2 6.4 6.5 6.5 6.4 6.4 6.4 6.4 6.5
6.0 6.0 5.8 5.9 6.1 5.9 6.0 5.8 5.7 5.7 5.8 6.1 6.3 6.2 6.3 6.4 6.5 6.6 6.9 7.2 7.4 7.4 7.4 7.2 7.2 7.0 6.9 6.9 6.8 6.7 6.8 6.6 6.5 6.4 6.4 6.4 6.3 6.4 6.2 6.1 6.1 6.2 6.3 6.4 6.5 6.5 6.5 6.4 6.4 6.3 6.2 6.3 6.4 6.6
6.2 6.1 6.0 6.0 5.9 5.9 5.7 5.8 5.8 5.6 6.2 6.4 6.3 6.2 6.5 6.6 6.8 6.9 7.1 7.3 7.4 7.5 7.4 7.2 7.2 7.0 7.0 7.0 7.0 6.6 6.4 6.4 6.3 6.4 6.2 6.0 6.2 6.0 5.9 5.9 6.1 6.4 6.4 6.4 6.4 6.4 6.4 6.3 6.1 6.2 6.3 6.3 6.4 6.7
6.1 6.1 5.9 6.0 5.8 5.8 5.7 5.6 5.5 5.6 5.9 5.9 5.9 6.1 6.3 6.5 6.8 6.9 7.1 7.2 7.3 7.2 7.2 7.0 6.7 7.0 7.2 6.8 6.5 6.2 6.2 6.2 6.3 6.2 5.9 5.8 5.8 5.7 5.8 6.0 6.2 6.2 6.3 6.3 6.3 6.4 6.3 6.2 6.2 6.2 6.1 6.2 6.4 6.6
6.1 6.1 5.9 5.8 5.6 5.4 5.4 5.6 5.4 5.6 5.8 5.6 5.9 6.0 6.2 6.4 6.7 6.8 7.0 7.1 7.2 7.0 6.8 6.8 7.1 7.1 6.7 6.4 6.3 6.2 6.0 5.9 6.0 5.8 5.8 5.7 5.6 5.6 5.9 6.1 6.1 6.2 6.2 6.3 6.5 6.5 6.4 6.2 6.1 6.1 6.3 6.3 6.3 6.5
6.0 6.1 5.8 5.7 5.5 5.5 5.3 5.5 5.4 5.5 5.5 5.6 5.7 5.9 6.2 6.4 6.6 6.8 6.8 6.8 6.7 6.6 6.8 7.0 6.8 6.4 6.4 6.3 6.3 6.0 5.9 5.9 5.8 5.8 5.9 5.7 5.6 5.6 5.9 6.0 6.0 6.1 6.4 6.5 6.5 6.5 6.5 6.2 6.1 6.2 6.3 6.2 6.2 6.2
5.9 5.8 5.7 5.5 5.1 5.3 5.3 5.3 5.3 5.3 5.4 5.6 5.8 5.9 6.2 6.3 6.4 6.3 6.4 6.2 6.4 6.8 6.6 6.4 6.2 6.2 6.2 6.2 6.2 6.2 6.1 6.0 5.9 6.0 5.7 5.7 5.9 5.8 5.8 5.9 5.9 6.1 6.3 6.4 6.5 6.5 6.3 6.1 6.2 6.3 6.3 6.2 6.2 6.3
5.7 5.7 5.5 5.4 5.2 5.1 5.1 5.1 5.2 5.4 5.5 5.7 6.0 6.2 6.3 6.4 6.3 6.3 6.1 6.3 6.5 6.4 6.0 5.9 6.0 5.9 6.1 6.2 6.2 6.2 6.0 5.8 5.9 5.8 5.6 5.6 5.7 5.8 5.7 5.8 6.0 6.2 6.2 6.4 6.5 6.5 6.3 6.2 6.1 6.0 5.8 5.9 6.0 6.1
5.5 5.3 5.2 5.2 5.0 5.1 5.3 5.2 5.3 5.4 5.6 6.0 6.0 6.2 6.3 6.2 6.2 6.1 6.2 6.2 6.0 6.1 6.2 6.3 6.3 6.2 6.2 6.2 6.2 6.1 5.9 5.8 5.7 5.5 5.4 5.4 5.6 5.8 5.6 5.7 6.0 6.2 6.2 6.3 6.4 6.4 6.2 6.0 5.8 5.5 5.5 5.6 5.9 6.1
5.5 5.4 5.4 5.5 5.3 5.4 5.4 5.6 5.7 5.8 5.9 6.0 6.0 5.9 6.0 6.1 6.2 6.0 6.3 6.2 6.2 6.1 6.1 6.2 6.4 6.4 6.2 6.0 5.8 5.8 5.7 5.6 5.3 5.3 5.4 5.4 5.4 5.4 5.7 5.8 6.0 6.1 6.0 6.0 6.3 6.3 6.1 5.9 5.6 5.5 5.5 5.5 5.7 5.9
5.2 5.2 5.4 5.5 5.5 5.5 5.7 5.9 6.0 6.0 5.9 5.7 5.6 5.9 6.1 6.2 6.2 6.3 6.2 6.3 6.4 6.5 6.5 6.4 6.3 6.2 6.1 5.9 5.6 5.6 5.6 5.2 5.5 5.6 5.7 5.8 5.8 5.9 5.8 5.9 6.1 6.0 5.9 5.9 6.1 6.1 6.1 6.0 5.8 5.6 5.4 5.4 5.5 5.7
5.2 5.3 5.6 5.6 5.5 5.5 5.6 6.0 6.1 6.3 5.9 5.9 5.8 6.1 6.3 6.4 6.4 6.3 6.2 6.1 6.3 6.5 6.6 6.6 6.5 6.2 5.8 5.8 5.7 5.5 5.4 5.4 5.6 5.6 5.7 5.9 5.9 5.9 5.9 6.0 5.9 5.8 5.8 5.8 5.7 6.0 6.0 6.0 5.9 5.6 5.5 5.4 5.4 5.5
5.3 5.5 5.5 5.5 5.7 5.7 6.0 6.3 6.0 5.9 6.0 6.0 6.0 6.0 6.1 6.4 6.4 6.3 6.3 6.2 6.1 6.3 6.4 6.4 6.4 6.2 6.0 5.8 5.6 5.5 5.6 5.7 5.8 5.7 5.8 5.7 5.8 6.0 6.2 6.2 5.6 5.4 5.7 5.7 5.6 5.8 6.1 6.1 6.1 6.0 5.7 5.5 5.4 5.5
5.4 5.5 5.5 5.7 5.7 5.8 6.1 6.1 6.2 6.1 6.1 6.2 6.6 6.6 6.6 6.7 6.7 6.7 6.7 6.6 6.2 6.1 6.1 6.1 6.4 6.4 6.3 6.1 5.5 5.4 5.3 5.4 5.5 5.6 5.6 5.6 5.8 5.9 6.1 6.2 6.0 5.7 5.9 6.1 5.9 5.7 6.0 6.2 6.1 6.1 6.0 5.8 5.5 5.5
5.4 5.3 5.6 5.8 5.9 6.1 6.3 6.3 6.2 6.4 6.4 6.5 6.7 6.8 6.9 6.9 6.9 6.8 6.8 6.6 6.5 6.3 6.1 6.0 6.0 5.8 5.7 5.7 5.7 5.6 5.5 5.6 5.5 5.5 5.5 5.5 6.0 5.8 5.8 6.1 6.2 6.1 6.2 6.4 6.2 6.0 6.2 6.3 6.2 6.1 6.0 5.9 5.8 5.6
5.7 5.8 6.0 6.2 6.3 6.2 6.3 6.4 6.3 6.2 6.5 6.7 6.8 6.8 6.8 6.7 6.8 6.7 6.6 6.4 6.3 6.1 6.2 6.0 5.7 5.0 5.2 5.5 5.5 5.5 5.5 5.4 5.3 5.6 5.9 5.8 6.1 6.3 6.1 6.3 6.5 6.5 6.5 6.7 6.6 6.5 6.5 6.4 6.3 6.3 6.2 6.1 6.0 5.8
6.0 6.1 6.0 6.0 6.1 6.2 6.4 6.5 6.6 6.7 6.8 6.7 6.8 6.8 6.9 6.9 6.8 6.7 6.3 6.1 6.1 6.1 5.8 6.0 5.9 5.2 5.1 5.6 5.4 5.4 5.4 6.0 6.4 6.2 6.1 6.6 6.8 6.7 6.6 6.6 6.6 6.5 6.5 6.7 6.6 6.6 6.5 6.3 6.2 6.4 6.4 6.2 6.2 6.1
6.1 6.1 6.2 6.4 6.5 6.5 6.5 6.5 6.5 6.6 6.6 6.7 6.7 6.7 6.6 6.4 6.3 6.1 6.0 6.0 5.7 5.7 5.7 5.5 5.5 5.1 5.6 5.9 5.9 5.4 5.6 5.8 5.8 6.0 5.7 5.8 6.0 6.2 6.3 6.3 6.4 6.4 6.5 6.5 6.5 6.5 6.3 6.1 6.1 6.1 6.1 6.1 6.1 6.1
Wind_Speed
18 19 18 18 18 15 14 13 11 11 12 11 10 8 9 9 9 3 1 2 1 1 1 4 4 4 3 2 3 3 3 2 2 2 2 2 2 2 2 1 2 3 3 2 2 2 5 4 1 2 3 2 3 6
18 20 19 18 19 16 15 13 12 11 13 11 8 7 8 9 10 5 2 1 2 2 1 1 3 2 2 4 4 2 1 2 2 3 2 3 2 3 2 3 2 3 2 1 4 1 1 2 2 1 1 3 3 4
19 19 20 19 18 15 14 12 12 10 11 10 7 6 6 8 7 6 2 2 1 1 1 2 3 2 1 4 3 3 2 3 3 2 3 2 1 3 3 3 3 3 2 2 3 4 4 3 3 3 2 2 3 1
19 20 19 17 16 13 12 10 11 10 10 9 6 6 6 6 7 5 2 1 1 1 1 2 2 1 2 3 2 2 7 6 5 1 2 2 2 3 2 1 3 1 8 5 3 5 4 7 6 2 3 1 3 4
19 18 17 15 13 10 10 9 10 9 8 8 5 6 5 6 7 2 1 0 3 2 1 1 3 3 2 3 8 10 10 6 2 2 1 2 2 3 1 1 3 6 5 5 4 6 6 2 3 5 4 3 1 4
18 16 15 12 10 8 8 9 10 8 7 6 4 5 5 6 6 2 1 2 2 1 2 2 2 1 4 8 10 8 5 3 2 1 2 2 1 2 3 3 4 7 6 4 2 3 4 2 3 3 4 3 2 3
17 15 12 10 7 6 8 9 9 8 6 5 3 5 5 5 2 1 1 2 2 1 1 2 2 2 4 3 2 2 3 3 1 2 2 2 2 2 2 3 2 4 7 6 3 6 4 5 3 5 5 5 2 2
15 13 11 8 5 4 6 8 8 7 5 4 3 5 7 7 6 2 1 7 4 1 0 1 1 3 1 2 3 1 2 1 3 2 2 2 3 1 4 8 4 1 4 5 8 4 0 7 5 6 4 2 2 0
11 12 11 6 3 2 4 5 5 4 4 4 5 8 2 2 2 2 6 9 1 1 1 1 3 3 1 2 2 2 0 2 1 2 1 2 2 4 6 6 6 7 6 3 7 7 3 4 6 3 1 1 1 1
8 11 10 11 8 5 3 1 1 2 4 4 2 2 2 2 1 5 2 1 1 1 0 2 1 3 1 1 2 3 1 2 2 1 2 2 3 8 7 5 3 4 7 6 8 7 7 5 3 3 3 2 1 1
7 7 7 7 7 6 5 7 6 5 1 2 2 1 1 2 2 1 2 2 1 3 3 1 4 3 1 2 3 1 2 1 2 2 2 2 3 2 1 1 5 7 7 8 3 6 6 6 6 5 4 2 2 3
6 7 6 5 2 3 6 8 11 1 0 1 1 0 1 2 2 2 2 1 4 3 4 3 3 1 3 1 2 1 2 2 1 3 2 3 3 2 2 1 1 6 8 8 5 7 6 6 5 4 3 0 1 2
6 6 6 6 6 3 6 3 5 1 1 1 1 2 1 1 2 5 6 3 3 4 5 4 4 2 2 1 3 2 3 2 3 2 3 4 1 2 1 3 7 6 7 7 8 7 7 7 5 5 3 3 3 3
5 6 7 7 8 9 6 2 2 1 1 0 2 1 3 4 4 4 4 3 2 2 6 4 3 2 2 2 2 3 2 2 2 3 5 2 4 5 4 4 7 8 9 10 10 10 9 9 9 9 6 6 6 5
5 6 7 7 3 3 5 4 5 2 2 3 3 4 6 3 2 1 3 0 2 4 5 4 3 2 2 3 1 3 4 4 4 4 2 3 5 7 6 6 8 9 9 9 9 9 9 8 7 7 6 6 7 6
5 8 4 5 1 2 4 6 3 2 2 2 3 3 3 2 2 3 4 3 5 5 3 1 3 3 2 4 4 5 4 6 3 3 3 4 7 8 8 8 8 8 9 9 8 8 8 7 6 6 6 6 6 6
3 1 2 3 2 3 1 1 2 3 2 2 3 3 3 3 3 2 3 1 5 6 3 2 5 3 4 3 4 4 4 3 3 4 4 7 10 10 9 9 9 9 8 8 8 7 7 6 5 7 6 4 5 6
2 2 3 2 4 2 2 2 2 2 4 4 4 2 3 3 2 2 2 4 5 3 4 4 5 4 4 5 4 4 5 3 2 3 6 8 9 9 9 11 9 8 8 8 7 7 5 5 7 5 4 1 2 4
2 4 0 2 1 0 2 3 2 2 4 2 3 3 2 3 4 2 3 5 2 1 4 3 3 4 4 4 5 4 3 5 5 5 6 8 9 11 10 9 9 7 8 8 8 5 4 6 5 4 2 1 3 3
7 7 7 6 0 1 2 2 2 2 3 1 3 3 3 2 1 2 4 5 5 3 3 4 5 4 4 3 3 4 3 6 8 8 7 6 7 10 10 9 7 7 6 7 5 5 6 5 4 3 1 2 3 4
2 2 2 6 2 1 1 2 3 3 3 3 1 2 2 2 3 4 3 5 3 3 4 4 4 5 4 2 2 3 6 10 10 9 11 9 8 8 7 6 7 6 6 6 6 6 5 5 4 2 1 2 3 3
1 4 2 1 1 2 2 3 3 2 3 3 2 3 3 3 3 3 5 4 4 4 5 5 4 4 5 5 6 7 6 11 8 7 9 13 9 8 8 7 6 6 6 6 6 7 6 4 3 2 2 2 2 3
1 1 1 2 3 3 4 2 3 3 3 2 1 3 3 2 1 4 3 3 4 5 5 4 4 4 4 4 5 6 9 11 9 7 9 9 8 8 7 8 7 7 6 5 6 5 5 3 4 4 2 2 2 2
1 2 3 3 5 3 2 3 3 3 3 3 3 3 2 2 3 2 4 3 3 2 5 7 6 4 3 5 6 6 8 8 6 6 7 9 8 8 8 8 7 6 5 6 6 6 5 5 4 4 4 4 3 3
1 2 2 3 2 3 4 3 4 3 3 3 3 1 1 2 2 2 3 3 2 4 4 6 6 5 5 6 5 5 7 8 8 9 7 8 9 7 6 5 5 5 5 6 7 7 6 6 5 4 4 4 2 1
3 4 6 4 2 3 2 2 3 5 2 0 2 2 1 1 2 4 2 2 2 3 6 7 7 6 5 6 7 6 6 6 7 7 8 9 10 10 9 9 8 6 7 7 7 8 8 7 6 6 4 5 4 2
2 3 3 2 2 3 4 4 4 1 3 0 2 3 4 3 3 2 2 2 2 2 4 6 6 7 6 6 4 4 6 7 4 2 6 9 8 8 9 10 10 10 10 11 10 10 9 8 7 7 5 4 4 4
4 2 4 3 3 3 3 3 1 4 4 3 3 4 2 2 1 2 2 3 2 1 3 4 3 4 4 5 5 6 6 5 7 7 6 4 4 5 6 5 3 9 9 11 11 9 9 8 7 6 6 6 4 3
3 2 3 4 4 3 4 4 3 2 1 1 3 2 1 1 3 3 2 4 1 3 4 5 4 4 4 4 4 4 6 7 9 10 10 7 5 6 7 6 6 6 6 8 10 10 12 9 8 6 6 6 4 3
4 5 3 3 4 5 4 4 2 1 1 2 2 2 1 1 1 3 3 2 3 4 6 5 6 7 7 8 7 6 5 6 7 7 8 8 8 6 7 7 7 7 7 7 8 8 6 6 4 5 5 6 5 5
1 4 4 4 4 5 8 7 7 5 2 1 1 2 1 1 0 3 6 5 3 3 4 5 6 1 3 4 4 2 2 3 4 4 4 2 4 5 6 6 6 6 7 8 9 9 9 8 7 7 7 8 8 7
4 6 3 3 3 3 4 3 2 0 1 1 3 3 2 3 3 4 6 5 2 2 5 1 8 5 6 5 6 5 3 1 8 7 7 3 3 4 5 5 6 6 7 7 8 8 10 10 7 7 7 9 9 9
4 4 5 4 3 3 2 1 2 2 3 2 3 4 4 4 4 3 3 5 4 4 5 5 4 2 2 3 8 7 2 2 3 9 8 8 9 9 7 6 6 7 9 8 9 9 10 10 8 9 9 9 9 9
Wind_Direction
300 300 303 301 299 301 292 276 282 293 291 299 307 318 328 328 342 318 91 225 270 162 219 201 175 143 136 184 181 136 178 148 107 103 155 160 171 155 169 182 221 206 169 150 139 171 230 0 275 282 24 2 322 211
303 299 300 299 297 297 288 272 264 278 278 286 295 307 325 326 339 333 208 177 283 222 348 282 274 298 247 188 140 157 27 148 141 112 147 141 150 169 181 199 190 209 228 154 207 209 49 306 39 28 31 14 356 273
302 300 299 300 298 294 286 267 260 267 271 281 286 297 318 322 337 342 297 346 212 313 242 239 174 92 155 187 198 138 196 134 158 5 134 110 174 169 184 220 188 207 175 204 192 179 221 217 184 185 195 339 12 288
307 302 302 301 296 296 281 256 257 255 266 282 277 297 316 318 328 343 278 24 351 73 253 153 336 132 350 175 139 55 123 104 106 163 113 142 182 216 193 70 231 115 162 180 237 260 274 246 229 207 167 171 109 121
309 306 306 302 297 297 274 245 247 248 264 282 263 292 309 316 325 286 232 277 298 296 274 285 303 32 8 138 106 112 120 115 129 131 132 152 113 172 88 247 234 191 181 184 212 201 200 210 183 188 198 197 171 152
316 311 306 303 294 284 254 241 242 251 261 253 257 288 304 314 326 229 177 182 214 286 280 205 5 54 75 102 100 93 82 86 83 114 106 127 76 251 196 220 252 209 209 228 235 180 191 74 139 176 204 189 196 216
326 313 316 309 294 270 236 238 250 249 259 229 263 290 297 301 292 222 349 54 118 156 240 231 166 63 114 111 72 93 57 83 57 111 163 152 161 224 226 238 218 211 220 212 215 144 161 179 154 150 117 97 117 261
336 337 329 316 302 246 235 241 248 253 220 226 291 296 290 287 265 247 153 218 202 127 281 231 144 156 215 134 123 14 113 114 46 104 147 170 148 242 249 244 244 252 179 192 197 196 346 136 130 120 113 116 128 280
348 1 354 350 335 261 252 248 245 213 226 255 292 299 234 215 205 107 103 119 191 274 229 207 186 164 100 86 98 116 149 140 47 207 136 191 162 227 235 222 213 193 196 191 166 179 157 151 138 120 106 122 271 325
351 19 19 34 42 56 75 93 298 269 270 284 265 218 175 122 27 141 126 163 185 15 348 238 141 149 161 148 98 127 58 126 190 98 146 220 258 265 264 237 225 199 202 168 154 171 174 166 153 158 172 156 215 272
350 6 11 36 48 42 18 349 328 305 208 207 207 176 32 300 190 98 144 196 149 223 188 212 211 141 125 143 127 335 137 157 203 128 251 237 266 250 55 217 247 231 211 195 199 160 151 144 157 161 163 172 241 262
320 344 354 340 316 339 334 338 351 100 234 340 27 227 225 177 104 179 189 174 209 235 168 185 171 97 119 107 124 166 135 186 196 141 235 264 253 248 300 312 207 171 166 167 158 142 140 137 130 121 124 189 311 314
297 311 322 334 326 265 277 324 17 11 243 259 62 49 319 141 161 203 188 197 215 186 171 167 138 133 133 103 87 144 159 132 131 208 237 230 168 187 138 112 125 136 148 135 140 134 124 107 84 59 65 45 50 46
285 300 313 303 307 304 264 275 163 144 200 179 138 196 225 189 228 199 194 185 192 150 144 134 117 126 107 105 130 147 105 171 206 229 239 233 199 168 154 127 126 127 133 126 119 117 113 104 90 82 77 54 54 33
283 294 305 308 333 251 272 254 180 204 210 210 192 212 219 232 236 190 192 189 174 132 137 124 104 129 116 121 71 118 159 224 219 233 224 202 181 163 141 132 134 131 126 116 117 112 109 110 107 94 62 47 33 6
290 298 220 233 332 26 104 135 164 211 215 213 226 243 199 238 188 179 193 217 162 152 130 122 131 159 129 136 166 192 185 219 222 214 199 158 158 153 146 144 139 133 126 121 114 115 119 123 110 98 94 63 34 14
280 170 94 129 155 161 175 275 206 218 257 230 233 225 244 286 263 248 199 153 159 165 186 156 163 151 125 183 198 186 215 215 203 184 169 172 159 159 154 146 143 138 132 128 129 128 119 120 131 140 119 66 35 34
225 144 128 32 10 170 201 220 244 232 252 232 242 204 194 232 236 205 177 156 154 195 167 188 132 187 187 186 204 214 221 196 172 164 161 163 164 160 161 156 153 148 140 138 139 137 147 149 143 128 126 55 27 29
142 162 127 349 21 24 245 194 216 253 247 252 243 228 233 248 230 268 162 170 157 141 140 176 180 192 206 209 228 202 189 191 172 166 161 168 164 160 159 154 150 147 148 153 160 162 143 149 139 153 130 10 341 331
234 256 255 266 71 253 233 208 189 250 259 274 235 224 222 223 118 151 154 158 158 173 193 207 216 205 209 210 200 215 194 154 151 149 155 159 160 158 166 167 165 154 150 151 150 150 150 161 178 165 99 341 326 341
210 167 112 154 180 243 257 268 240 245 283 258 248 226 230 183 199 190 163 162 186 212 222 214 225 230 201 216 218 194 169 176 180 174 167 160 167 169 167 162 153 160 166 168 171 169 186 173 162 166 193 279 290 310
160 183 137 200 202 155 265 226 263 301 254 265 261 222 230 217 197 185 140 192 217 219 205 198 218 204 199 207 205 200 186 177 152 119 105 126 152 169 174 169 167 174 174 176 180 176 183 186 188 227 261 315 293 340
236 158 132 156 218 211 250 187 234 217 246 235 234 230 206 209 154 153 221 221 240 223 211 204 188 175 188 159 148 159 175 172 166 161 161 170 165 164 163 169 176 167 169 174 181 178 178 173 201 231 223 259 275 340
75 197 210 203 203 253 189 217 219 241 226 232 226 245 175 170 161 226 248 237 231 180 192 191 177 153 123 149 178 173 177 182 159 152 164 165 160 168 175 172 175 172 175 165 178 184 187 200 190 208 223 241 251 254
187 216 167 274 243 257 224 207 206 244 254 225 234 155 91 171 208 252 250 269 232 217 201 185 193 200 188 172 160 150 164 172 176 175 177 186 164 146 158 169 177 172 165 171 184 190 192 196 203 216 235 235 247 216
203 207 181 206 214 228 265 292 228 212 232 281 49 321 162 185 237 242 236 246 240 203 183 186 186 181 190 186 160 164 170 172 161 174 170 177 178 172 174 177 182 197 200 205 194 196 197 198 204 210 223 210 207 232
252 232 200 225 273 281 268 238 245 318 29 166 224 239 185 219 233 215 271 237 252 231 193 175 178 187 176 164 148 124 141 162 149 150 163 180 187 190 178 179 194 204 181 197 205 203 204 206 214 221 233 219 224 239
245 267 218 178 217 235 273 285 239 170 232 204 202 224 221 239 42 13 353 355 285 323 175 166 185 195 172 168 149 133 128 125 100 95 103 128 184 198 202 199 205 147 179 192 201 204 209 213 217 223 229 230 224 206
242 227 218 239 230 233 231 241 249 230 222 307 334 303 349 22 2 334 342 334 321 149 156 160 150 144 120 131 137 157 156 163 168 181 195 195 188 213 204 200 184 189 194 194 200 212 208 209 213 222 232 223 210 208
235 199 224 236 221 226 236 212 277 316 254 317 318 280 232 151 25 340 333 297 238 187 173 177 161 174 174 175 170 177 190 198 207 202 191 199 212 211 179 190 196 202 198 194 194 187 134 167 154 192 207 197 203 213
208 186 215 238 256 255 252 269 275 274 258 219 214 261 302 349 137 26 7 343 265 207 152 133 107 342 169 125 110 105 257 236 230 247 267 278 185 166 170 172 170 173 179 184 186 187 187 194 207 207 205 212 216 222
199 208 210 232 248 244 255 217 233 182 62 53 32 15 19 354 18 30 6 353 28 41 13 73 104 127 128 138 134 134 179 157 188 196 199 176 168 165 159 159 161 165 166 170 182 188 188 194 194 203 212 221 226 229
203 207 220 256 254 252 161 211 139 107 69 59 50 25 13 351 354 6 42 42 54 76 89 82 70 71 245 156 117 83 48 126 156 165 183 191 176 170 171 175 175 178 173 178 185 189 194 202 209 213 218 226 232 239